| time (UTC) | temp F | wind direction | speed knots | gust knots | rain 1hr in | rain 24hr in | rain mn in | humidity % | barometer mb |
| 20260903182731 | 71 | 248 | 0.0 | 0.9 | 0.00 | 0.00 | 0.00 | ||
| 20260903182330 | 72 | 248 | 0.9 | 1.7 | 0.00 | 0.00 | 0.00 | ||
| 20260903181929 | 72 | 248 | 0.9 | 2.6 | 0.00 | 0.00 | 0.00 | ||
| 20260903181526 | 72 | 267 | 0.9 | 1.7 | 0.00 | 0.00 | 0.00 | ||
| 20260903181125 | 71 | 270 | 0.9 | 1.7 | 0.00 | 0.00 | 0.00 | ||
| 20260903180723 | 71 | 270 | 0.9 | 1.7 | 0.00 | 0.00 | 0.00 | ||
| 20260903180322 | 70 | 270 | 0.9 | 2.6 | 0.00 | 0.00 | 0.00 | ||
| 20260903175920 | 69 | 270 | 1.7 | 2.6 | 0.00 | 0.00 | 0.00 | ||
| 20260903175518 | 69 | 270 | 2.6 | 3.5 | 0.00 | 0.00 | 0.00 | ||
| 20260903175110 | 71 | 266 | 2.6 | 4.3 | 0.00 | 0.00 | 0.00 | ||
| 20260903174708 | 73 | 248 | 1.7 | 1.7 | 0.00 | 0.00 | 0.00 | ||
| 20260903174306 | 73 | 268 | 1.7 | 2.6 | 0.00 | 0.00 | 0.00 | ||
| 20260903173905 | 71 | 270 | 0.0 | 0.9 | 0.00 | 0.00 | 0.00 | ||
| 20260903173503 | 72 | 270 | 0.0 | 1.7 | 0.00 | 0.00 | 0.00 | ||
| 20260903173103 | 74 | 270 | 0.9 | 1.7 | 0.00 | 0.00 | 0.00 | ||
| 20260903172701 | 72 | 270 | 0.0 | 0.0 | 0.00 | 0.00 | 0.00 | ||
| 20260903172258 | 73 | 270 | 0.0 | 0.9 | 0.00 | 0.00 | 0.00 | ||
| 20260903171858 | 74 | 270 | 0.0 | 0.9 | 0.00 | 0.00 | 0.00 | ||
| 20260903171456 | 74 | 270 | 0.9 | 0.9 | 0.00 | 0.00 | 0.00 | ||
| 20260903171048 | 73 | 270 | 0.0 | 0.9 | 0.00 | 0.00 | 0.00 | ||
| 20260903170244 | 72 | 270 | 0.9 | 1.7 | 0.00 | 0.00 | 0.00 | ||
| 20260903165843 | 72 | 270 | 0.9 | 1.7 | 0.00 | 0.00 | 0.00 | ||
| 20260903165441 | 73 | 270 | 0.0 | 1.7 | 0.00 | 0.00 | 0.00 | ||
| 20260903165039 | 74 | 270 | 0.0 | 0.0 | 0.00 | 0.00 | 0.00 | ||
| 20260903164637 | 74 | 270 | 0.9 | 1.7 | 0.00 | 0.00 | 0.00 | ||
| 20260903164236 | 75 | 270 | 1.7 | 1.7 | 0.00 | 0.00 | 0.00 | ||
| 20260903163835 | 78 | 270 | 0.9 | 1.7 | 0.00 | 0.00 | 0.00 | ||
| 20260903163432 | 76 | 270 | 0.9 | 1.7 | 0.00 | 0.00 | 0.00 | ||
| 20260903163024 | 75 | 283 | 1.7 | 2.6 | 0.00 | 0.00 | 0.00 | ||
| 20260903162622 | 78 | 292 | 0.9 | 1.7 | 0.00 | 0.00 | 0.00 | ||
| 20260903162221 | 81 | 292 | 0.0 | 0.0 | 0.00 | 0.00 | 0.00 | ||
| 20260903161820 | 80 | 292 | 0.0 | 0.9 | 0.00 | 0.00 | 0.00 | ||
| 20260903161417 | 76 | 292 | 0.9 | 0.9 | 0.00 | 0.00 | 0.00 | ||
| 20260903161016 | 76 | 292 | 0.0 | 0.0 | 0.00 | 0.00 | 0.00 | ||
| 20260903160614 | 77 | 292 | 0.0 | 1.7 | 0.00 | 0.00 | 0.00 | ||
| 20260903160213 | 75 | 292 | 0.0 | 0.9 | 0.00 | 0.00 | 0.00 | ||
| 20260903155811 | 74 | 292 | 0.0 | 0.9 | 0.00 | 0.00 | 0.00 | ||
| 20260903155410 | 74 | 292 | 0.0 | 1.7 | 0.00 | 0.00 | 0.00 | ||
| 20260903155001 | 74 | 292 | 0.9 | 1.7 | 0.00 | 0.00 | 0.00 | ||
| 20260903154600 | 74 | 292 | 0.0 | 0.9 | 0.00 | 0.00 | 0.00 | ||
| 20260903154157 | 74 | 292 | 0.0 | 0.0 | 0.00 | 0.00 | 0.00 | ||
| 20260903153757 | 74 | 292 | 0.0 | 1.7 | 0.00 | 0.00 | 0.00 | ||
| 20260903153355 | 74 | 292 | 0.9 | 1.7 | 0.00 | 0.00 | 0.00 | ||
| 20260903152954 | 74 | 292 | 1.7 | 2.6 | 0.00 | 0.00 | 0.00 | ||
| 20260903152551 | 74 | 292 | 0.9 | 3.5 | 0.00 | 0.00 | 0.00 | ||
| 20260903152150 | 74 | 305 | 1.7 | 3.5 | 0.00 | 0.00 | 0.00 | ||
| 20260903151749 | 74 | 299 | 2.6 | 3.5 | 0.00 | 0.00 | 0.00 | ||
| 20260903151347 | 75 | 292 | 1.7 | 1.7 | 0.00 | 0.00 | 0.00 | ||
| 20260903150939 | 74 | 270 | 1.7 | 2.6 | 0.00 | 0.00 | 0.00 | ||
| 20260903150536 | 74 | 270 | 1.7 | 2.6 | 0.00 | 0.00 | 0.00 | ||
| 20260903150135 | 75 | 270 | 2.6 | 4.3 | 0.00 | 0.00 | 0.00 | ||
| 20260903145734 | 76 | 315 | 0.0 | 1.7 | 0.00 | 0.00 | 0.00 | ||
| 20260903145332 | 75 | 315 | 0.9 | 1.7 | 0.00 | 0.00 | 0.00 | ||
| 20260903144930 | 75 | 315 | 0.9 | 3.5 | 0.00 | 0.00 | 0.00 | ||
| 20260903144528 | 74 | 312 | 0.9 | 2.6 | 0.00 | 0.00 | 0.00 | ||
| 20260903144127 | 74 | 305 | 2.6 | 4.3 | 0.00 | 0.00 | 0.00 | ||
| 20260903143726 | 74 | 315 | 1.7 | 2.6 | 0.00 | 0.00 | 0.00 | ||
| 20260903143323 | 74 | 270 | 0.9 | 1.7 | 0.00 | 0.00 | 0.00 | ||
| 20260903142915 | 74 | 271 | 1.7 | 2.6 | 0.00 | 0.00 | 0.00 | ||
| 20260903142513 | 73 | 288 | 3.5 | 5.2 | 0.00 | 0.00 | 0.00 | ||
| 20260903142113 | 75 | 313 | 1.7 | 3.5 | 0.00 | 0.00 | 0.00 | ||
| 20260903141710 | 74 | 289 | 1.7 | 3.5 | 0.00 | 0.00 | 0.00 | ||
| 20260903141309 | 74 | 278 | 4.3 | 7.0 | 0.00 | 0.00 | 0.00 | ||
| 20260903140908 | 75 | 290 | 3.5 | 7.0 | 0.00 | 0.00 | 0.00 | ||
| 20260903140506 | 74 | 298 | 3.5 | 7.0 | 0.00 | 0.00 | 0.00 | ||
| 20260903140105 | 75 | 279 | 5.2 | 9.6 | 0.00 | 0.00 | 0.00 | ||
| 20260903135703 | 75 | 316 | 3.5 | 7.0 | 0.00 | 0.00 | 0.00 | ||
| 20260903135301 | 75 | 0 | 2.6 | 3.5 | 0.00 | 0.00 | 0.00 | ||
| 20260903134853 | 76 | 300 | 2.6 | 7.8 | 0.00 | 0.00 | 0.00 | ||
| 20260903134451 | 75 | 287 | 3.5 | 5.2 | 0.00 | 0.00 | 0.00 | ||
| 20260903134049 | 76 | 304 | 2.6 | 5.2 | 0.00 | 0.00 | 0.00 | ||
| 20260903133648 | 75 | 282 | 1.7 | 2.6 | 0.00 | 0.00 | 0.00 | ||
| 20260903133246 | 75 | 255 | 1.7 | 3.5 | 0.00 | 0.00 | 0.00 | ||
| 20260903132845 | 76 | 291 | 1.7 | 3.5 | 0.00 | 0.00 | 0.00 | ||
| 20260903132442 | 76 | 276 | 0.9 | 2.6 | 0.00 | 0.00 | 0.00 | ||
| 20260903132040 | 76 | 276 | 1.7 | 3.5 | 0.00 | 0.00 | 0.00 | ||
| 20260903131639 | 74 | 292 | 2.6 | 3.5 | 0.00 | 0.00 | 0.00 | ||
| 20260903131237 | 74 | 324 | 1.7 | 2.6 | 0.00 | 0.00 | 0.00 | ||
| 20260903130828 | 75 | 279 | 3.5 | 4.3 | 0.00 | 0.00 | 0.00 | ||
| 20260903130426 | 75 | 284 | 2.6 | 5.2 | 0.00 | 0.00 | 0.00 | ||
| 20260903130025 | 75 | 314 | 1.7 | 2.6 | 0.00 | 0.00 | 0.00 | ||
| 20260903125624 | 74 | 321 | 1.7 | 4.3 | 0.00 | 0.00 | 0.00 | ||
| 20260903125222 | 73 | 338 | 0.0 | 1.7 | 0.00 | 0.00 | 0.00 | ||
| 20260903124820 | 73 | 335 | 1.7 | 5.2 | 0.00 | 0.00 | 0.00 | ||
| 20260903124418 | 73 | 314 | 1.7 | 3.5 | 0.00 | 0.00 | 0.00 | ||
| 20260903124017 | 73 | 323 | 1.7 | 4.3 | 0.00 | 0.00 | 0.00 | ||
| 20260903123616 | 73 | 310 | 2.6 | 4.3 | 0.00 | 0.00 | 0.00 | ||
| 20260903123213 | 72 | 328 | 1.7 | 3.5 | 0.00 | 0.00 | 0.00 | ||
| 20260903122805 | 72 | 341 | 2.6 | 4.3 | 0.00 | 0.00 | 0.00 | ||
| 20260903122403 | 73 | 315 | 1.7 | 2.6 | 0.00 | 0.00 | 0.00 | ||
| 20260903122002 | 72 | 312 | 1.7 | 2.6 | 0.00 | 0.00 | 0.00 | ||
| 20260903121600 | 72 | 290 | 3.5 | 5.2 | 0.00 | 0.00 | 0.00 | ||
| 20260903121158 | 72 | 300 | 3.5 | 6.1 | 0.00 | 0.00 | 0.00 | ||
| 20260903120757 | 73 | 315 | 2.6 | 5.2 | 0.00 | 0.00 | 0.00 | ||
| 20260903120355 | 73 | 305 | 2.6 | 5.2 | 0.00 | 0.00 | 0.00 | ||
| 20260903115953 | 73 | 301 | 5.2 | 7.8 | 0.00 | 0.00 | 0.00 | ||
| 20260903115552 | 73 | 332 | 2.6 | 3.5 | 0.00 | 0.00 | 0.00 | ||
| 20260903115150 | 73 | 306 | 3.5 | 7.0 | 0.00 | 0.00 | 0.00 | ||
| 20260903114743 | 73 | 322 | 3.5 | 7.8 | 0.00 | 0.00 | 0.00 | ||
| 20260903114341 | 73 | 303 | 6.1 | 7.8 | 0.00 | 0.00 | 0.00 | ||
| 20260903113939 | 74 | 295 | 6.1 | 10.4 | 0.00 | 0.00 | 0.00 | ||
| 20260903112734 | 76 | 278 | 5.2 | 7.8 | 0.00 | 0.00 | 0.00 | ||
| 20260903112331 | 77 | 268 | 6.1 | 8.7 | 0.00 | 0.00 | 0.00 | ||
| 20260903111930 | 78 | 261 | 6.1 | 8.7 | 0.00 | 0.00 | 0.00 | ||
| 20260903111529 | 78 | 244 | 7.8 | 9.6 | 0.00 | 0.00 | 0.00 | ||
| 20260903111127 | 78 | 209 | 7.8 | 12.2 | 0.00 | 0.00 | 0.00 | ||
| 20260903110718 | 77 | 232 | 7.0 | 12.2 | 0.00 | 0.00 | 0.00 | ||
| 20260903110316 | 76 | 260 | 4.3 | 6.1 | 0.00 | 0.00 | 0.00 | ||
| 20260903105915 | 77 | 228 | 5.2 | 7.8 | 0.00 | 0.00 | 0.00 | ||
| 20260903105514 | 77 | 252 | 6.1 | 8.7 | 0.00 | 0.00 | 0.00 | ||
| 20260903105111 | 77 | 213 | 6.1 | 12.2 | 0.00 | 0.00 | 0.00 | ||
| 20260903104710 | 77 | 232 | 2.6 | 6.1 | 0.00 | 0.00 | 0.00 | ||
| 20260903104308 | 75 | 188 | 3.5 | 7.0 | 0.00 | 0.00 | 0.00 | ||
| 20260903103506 | 77 | 216 | 3.5 | 5.2 | 0.00 | 0.00 | 0.00 | ||
| 20260903103103 | 78 | 224 | 2.6 | 4.3 | 0.00 | 0.00 | 0.00 | ||
| 20260903102655 | 76 | 199 | 3.5 | 7.8 | 0.00 | 0.00 | 0.00 | ||
| 20260903102254 | 76 | 231 | 1.7 | 4.3 | 0.00 | 0.00 | 0.00 | ||
| 20260903101853 | 75 | 228 | 2.6 | 4.3 | 0.00 | 0.00 | 0.00 | ||
| 20260903101450 | 75 | 217 | 4.3 | 7.8 | 0.00 | 0.00 | 0.00 | ||
| 20260903101049 | 76 | 213 | 5.2 | 7.8 | 0.00 | 0.00 | 0.00 | ||
| 20260903100648 | 75 | 230 | 3.5 | 5.2 | 0.00 | 0.00 | 0.00 | ||
| 20260903095844 | 76 | 260 | 2.6 | 6.1 | 0.00 | 0.00 | 0.00 | ||
| 20260903095443 | 75 | 237 | 2.6 | 7.0 | 0.00 | 0.00 | 0.00 | ||
| 20260903095041 | 75 | 202 | 2.6 | 5.2 | 0.00 | 0.00 | 0.00 | ||
| 20260903094633 | 75 | 263 | 3.5 | 5.2 | 0.00 | 0.00 | 0.00 | ||
| 20260903094230 | 74 | 315 | 0.9 | 2.6 | 0.00 | 0.00 | 0.00 | ||
| 20260903093829 | 74 | 311 | 1.7 | 4.3 | 0.00 | 0.00 | 0.00 | ||
| 20260903093428 | 75 | 264 | 2.6 | 5.2 | 0.00 | 0.00 | 0.00 | ||
| 20260903093026 | 75 | 263 | 3.5 | 5.2 | 0.00 | 0.00 | 0.00 | ||
| 20260903092625 | 74 | 263 | 3.5 | 6.1 | 0.00 | 0.00 | 0.00 | ||
| 20260903092222 | 74 | 267 | 5.2 | 7.8 | 0.00 | 0.00 | 0.00 | ||
| 20260903091821 | 73 | 275 | 3.5 | 5.2 | 0.00 | 0.00 | 0.00 | ||
| 20260903091420 | 74 | 270 | 1.7 | 5.2 | 0.00 | 0.00 | 0.00 | ||
| 20260903091019 | 74 | 263 | 2.6 | 4.3 | 0.00 | 0.00 | 0.00 | ||
| 20260903090609 | 74 | 254 | 2.6 | 7.0 | 0.00 | 0.00 | 0.00 | ||
| 20260903090207 | 73 | 260 | 5.2 | 7.8 | 0.00 | 0.00 | 0.00 | ||
| 20260903085806 | 74 | 220 | 6.1 | 8.7 | 0.00 | 0.00 | 0.00 | ||
| 20260903085405 | 74 | 217 | 4.3 | 7.0 | 0.00 | 0.00 | 0.00 | ||
| 20260903085002 | 73 | 238 | 3.5 | 7.0 | 0.00 | 0.00 | 0.00 | ||
| 20260903084601 | 74 | 221 | 4.3 | 7.8 | 0.00 | 0.00 | 0.00 | ||
| 20260903084200 | 74 | 220 | 2.6 | 3.5 | 0.00 | 0.00 | 0.00 | ||
| 20260903083759 | 74 | 183 | 1.7 | 3.5 | 0.00 | 0.00 | 0.00 | ||
| 20260903083357 | 74 | 195 | 2.6 | 5.2 | 0.00 | 0.00 | 0.00 | ||
| 20260903082955 | 73 | 218 | 3.5 | 5.2 | 0.00 | 0.00 | 0.00 | ||
| 20260903082547 | 73 | 206 | 3.5 | 5.2 | 0.00 | 0.00 | 0.00 | ||
| 20260903082145 | 74 | 202 | 1.7 | 3.5 | 0.00 | 0.00 | 0.00 | ||
| 20260903081744 | 73 | 217 | 1.7 | 4.3 | 0.00 | 0.00 | 0.00 | ||
| 20260903081342 | 73 | 194 | 1.7 | 4.3 | 0.00 | 0.00 | 0.00 | ||
| 20260903080940 | 72 | 157 | 1.7 | 4.3 | 0.00 | 0.00 | 0.00 | ||
| 20260903080539 | 72 | 157 | 0.9 | 2.6 | 0.00 | 0.00 | 0.00 | ||
| 20260903080137 | 72 | 157 | 1.7 | 3.5 | 0.00 | 0.00 | 0.00 | ||
| 20260903075735 | 73 | 157 | 0.9 | 1.7 | 0.00 | 0.00 | 0.00 | ||
| 20260903075334 | 73 | 157 | 1.7 | 3.5 | 0.00 | 0.00 | 0.00 | ||
| 20260903074932 | 72 | 157 | 2.6 | 3.5 | 0.00 | 0.00 | 0.00 | ||
| 20260903074524 | 73 | 157 | 1.7 | 2.6 | 0.00 | 0.00 | 0.00 | ||
| 20260903074121 | 72 | 157 | 1.7 | 3.5 | 0.00 | 0.00 | 0.00 | ||
| 20260903073720 | 72 | 128 | 2.6 | 3.5 | 0.00 | 0.00 | 0.00 | ||
| 20260903073319 | 72 | 135 | 2.6 | 4.3 | 0.00 | 0.00 | 0.00 | ||
| 20260903072917 | 72 | 135 | 2.6 | 5.2 | 0.00 | 0.00 | 0.00 | ||
| 20260903072515 | 71 | 135 | 1.7 | 3.5 | 0.00 | 0.00 | 0.00 | ||
| 20260903072113 | 71 | 144 | 1.7 | 3.5 | 0.00 | 0.00 | 0.00 | ||
| 20260903071712 | 71 | 158 | 1.7 | 3.5 | 0.00 | 0.00 | 0.00 | ||
| 20260903071311 | 71 | 170 | 3.5 | 5.2 | 0.00 | 0.00 | 0.00 | ||
| 20260903070500 | 70 | 132 | 3.5 | 5.2 | 0.00 | 0.00 | 0.00 | ||
| 20260903070058 | 70 | 135 | 1.7 | 3.5 | 0.00 | 0.00 | 0.00 | ||
| 20260903065657 | 70 | 135 | 3.5 | 5.2 | 0.00 | 0.00 | 0.00 | ||
| 20260903065256 | 70 | 129 | 2.6 | 5.2 | 0.00 | 0.00 | 0.00 | ||
| 20260903064853 | 71 | 132 | 4.3 | 7.0 | 0.00 | 0.00 | 0.00 | ||
| 20260903064452 | 71 | 135 | 5.2 | 7.8 | 0.00 | 0.00 | 0.00 | ||
| 20260903064050 | 71 | 139 | 5.2 | 7.0 | 0.00 | 0.00 | 0.00 | ||
| 20260903063247 | 70 | 149 | 3.5 | 7.0 | 0.00 | 0.00 | 0.00 | ||
| 20260903062845 | 68 | 146 | 5.2 | 7.8 | 0.00 | 0.00 | 0.00 | ||
| 20260903062437 | 69 | 137 | 4.3 | 7.8 | 0.00 | 0.00 | 0.00 | ||
| 20260903062035 | 69 | 129 | 2.6 | 5.2 | 0.00 | 0.00 | 0.00 | ||
| 20260903061633 | 68 | 134 | 3.5 | 5.2 | 0.00 | 0.00 | 0.00 | ||
| 20260903061232 | 68 | 139 | 4.3 | 7.0 | 0.00 | 0.00 | 0.00 | ||
| 20260903060830 | 68 | 152 | 4.3 | 6.1 | 0.00 | 0.00 | 0.00 | ||
| 20260903060429 | 68 | 140 | 2.6 | 4.3 | 0.00 | 0.00 | 0.00 | ||
| 20260903060028 | 67 | 146 | 3.5 | 6.1 | 0.00 | 0.00 | 0.00 | ||
| 20260903055625 | 65 | 133 | 2.6 | 4.3 | 0.00 | 0.00 | 0.00 | ||
| 20260903055224 | 66 | 131 | 2.6 | 4.3 | 0.00 | 0.00 | 0.00 | ||
| 20260903054823 | 66 | 141 | 3.5 | 7.0 | 0.00 | 0.00 | 0.00 | ||
| 20260903054702 | 66 | 154 | 3.5 | 7.0 | 0.00 | 0.00 | 0.00 | ||
| 20260903054415 | 66 | 154 | 3.5 | 7.0 | 0.00 | 0.00 | 0.00 | ||
| 20260903054012 | 66 | 157 | 3.5 | 5.2 | 0.00 | 0.00 | 0.00 | ||
| 20260903053611 | 66 | 148 | 4.3 | 7.0 | 0.00 | 0.00 | 0.00 | ||
| 20260903053210 | 66 | 134 | 3.5 | 5.2 | 0.00 | 0.00 | 0.00 | ||
| 20260903052808 | 65 | 131 | 2.6 | 5.2 | 0.00 | 0.00 | 0.00 | ||
| 20260903052406 | 65 | 139 | 0.9 | 3.5 | 0.00 | 0.00 | 0.00 | ||
| 20260903052004 | 64 | 157 | 2.6 | 4.3 | 0.00 | 0.00 | 0.00 | ||
| 20260903051602 | 63 | 139 | 1.7 | 4.3 | 0.00 | 0.00 | 0.00 | ||
| 20260903051201 | 63 | 135 | 2.6 | 5.2 | 0.00 | 0.00 | 0.00 | ||
| 20260903050758 | 64 | 154 | 2.6 | 5.2 | 0.00 | 0.00 | 0.00 | ||
| 20260903050350 | 63 | 141 | 2.6 | 4.3 | 0.00 | 0.00 | 0.00 | ||
| 20260903045949 | 64 | 143 | 2.6 | 5.2 | 0.00 | 0.00 | 0.00 | ||
| 20260903045548 | 63 | 133 | 2.6 | 6.1 | 0.00 | 0.00 | 0.00 | ||
| 20260903045147 | 64 | 137 | 2.6 | 5.2 | 0.00 | 0.00 | 0.00 | ||
| 20260903044744 | 63 | 143 | 3.5 | 4.3 | 0.00 | 0.00 | 0.00 | ||
| 20260903044343 | 62 | 148 | 2.6 | 6.1 | 0.00 | 0.00 | 0.00 | ||
| 20260903043941 | 62 | 157 | 3.5 | 5.2 | 0.00 | 0.00 | 0.00 | ||
| 20260903043540 | 61 | 147 | 2.6 | 4.3 | 0.00 | 0.00 | 0.00 | ||
| 20260903043137 | 61 | 135 | 1.7 | 2.6 | 0.00 | 0.00 | 0.00 | ||
| 20260903042736 | 61 | 135 | 1.7 | 3.5 | 0.00 | 0.00 | 0.00 | ||
| 20260903042328 | 61 | 135 | 1.7 | 4.3 | 0.00 | 0.00 | 0.00 | ||
| 20260903041926 | 59 | 111 | 0.0 | 0.9 | 0.00 | 0.00 | 0.00 | ||
| 20260903041524 | 59 | 111 | 0.9 | 1.7 | 0.00 | 0.00 | 0.00 | ||
| 20260903041123 | 60 | 111 | 1.7 | 2.6 | 0.00 | 0.00 | 0.00 | ||
| 20260903040721 | 59 | 111 | 0.9 | 1.7 | 0.00 | 0.00 | 0.00 | ||
| 20260903040320 | 60 | 111 | 0.9 | 1.7 | 0.00 | 0.00 | 0.00 | ||
| 20260903035917 | 62 | 129 | 1.7 | 2.6 | 0.00 | 0.00 | 0.00 | ||
| 20260903035516 | 61 | 135 | 0.9 | 2.6 | 0.00 | 0.00 | 0.00 | ||
| 20260903035115 | 62 | 135 | 2.6 | 4.3 | 0.00 | 0.00 | 0.00 | ||
| 20260903034713 | 61 | 151 | 3.5 | 4.3 | 0.00 | 0.00 | 0.00 | ||
| 20260903034305 | 61 | 135 | 1.7 | 2.6 | 0.00 | 0.00 | 0.00 | ||
| 20260903033902 | 63 | 136 | 2.6 | 4.3 | 0.00 | 0.00 | 0.00 | ||
| 20260903033501 | 62 | 145 | 3.5 | 4.3 | 0.00 | 0.00 | 0.00 | ||
| 20260903033100 | 62 | 153 | 2.6 | 5.2 | 0.00 | 0.00 | 0.00 | ||
| 20260903032658 | 61 | 148 | 1.7 | 3.5 | 0.00 | 0.00 | 0.00 | ||
| 20260903032256 | 63 | 140 | 2.6 | 5.2 | 0.00 | 0.00 | 0.00 | ||
| 20260903031854 | 62 | 132 | 1.7 | 3.5 | 0.00 | 0.00 | 0.00 | ||
| 20260903031453 | 62 | 136 | 3.5 | 5.2 | 0.00 | 0.00 | 0.00 | ||
| 20260903031052 | 63 | 136 | 3.5 | 6.1 | 0.00 | 0.00 | 0.00 | ||
| 20260903030649 | 63 | 152 | 4.3 | 6.1 | 0.00 | 0.00 | 0.00 | ||
| 20260903030241 | 62 | 135 | 1.7 | 3.5 | 0.00 | 0.00 | 0.00 | ||
| 20260903025839 | 61 | 151 | 1.7 | 2.6 | 0.00 | 0.00 | 0.00 | ||
| 20260903025438 | 61 | 157 | 2.6 | 4.3 | 0.00 | 0.00 | 0.00 | ||
| 20260903025036 | 62 | 157 | 1.7 | 3.5 | 0.00 | 0.00 | 0.00 | ||
| 20260903024635 | 63 | 141 | 2.6 | 4.3 | 0.00 | 0.00 | 0.00 | ||
| 20260903024234 | 63 | 152 | 2.6 | 4.3 | 0.00 | 0.00 | 0.00 | ||
| 20260903023832 | 64 | 143 | 3.5 | 5.2 | 0.00 | 0.00 | 0.00 | ||
| 20260903023431 | 62 | 152 | 3.5 | 7.8 | 0.00 | 0.00 | 0.00 | ||
| 20260903023029 | 62 | 151 | 2.6 | 5.2 | 0.00 | 0.00 | 0.00 | ||
| 20260903022627 | 61 | 135 | 1.7 | 3.5 | 0.00 | 0.00 | 0.00 | ||
| 20260903022219 | 61 | 135 | 1.7 | 3.5 | 0.00 | 0.00 | 0.00 | ||
| 20260903021817 | 61 | 135 | 0.9 | 2.6 | 0.00 | 0.00 | 0.00 | ||
| 20260903021415 | 62 | 135 | 0.9 | 1.7 | 0.00 | 0.00 | 0.00 | ||
| 20260903020612 | 63 | 111 | 1.7 | 2.6 | 0.00 | 0.00 | 0.00 | ||
| 20260903020211 | 62 | 111 | 2.6 | 2.6 | 0.00 | 0.00 | 0.00 | ||
| 20260903015808 | 62 | 135 | 1.7 | 3.5 | 0.00 | 0.00 | 0.00 | ||
| 20260903015407 | 62 | 139 | 2.6 | 4.3 | 0.00 | 0.00 | 0.00 | ||
| 20260903015006 | 62 | 135 | 1.7 | 1.7 | 0.00 | 0.00 | 0.00 | ||
| 20260903014604 | 61 | 151 | 1.7 | 2.6 | 0.00 | 0.00 | 0.00 | ||
| 20260903014155 | 62 | 180 | 0.9 | 2.6 | 0.00 | 0.00 | 0.00 | ||
| 20260903013753 | 63 | 180 | 1.7 | 2.6 | 0.00 | 0.00 | 0.00 | ||
| 20260903013352 | 64 | 180 | 2.6 | 3.5 | 0.00 | 0.00 | 0.00 | ||
| 20260903012951 | 63 | 180 | 1.7 | 3.5 | 0.00 | 0.00 | 0.00 | ||
| 20260903012549 | 64 | 182 | 2.6 | 3.5 | 0.00 | 0.00 | 0.00 | ||
| 20260903012147 | 64 | 217 | 1.7 | 3.5 | 0.00 | 0.00 | 0.00 | ||
| 20260903011745 | 65 | 180 | 3.5 | 6.1 | 0.00 | 0.00 | 0.00 | ||
| 20260903010943 | 65 | 150 | 1.7 | 3.5 | 0.00 | 0.00 | 0.00 | ||
| 20260903010540 | 63 | 140 | 1.7 | 3.5 | 0.00 | 0.00 | 0.00 | ||
| 20260903010132 | 63 | 170 | 1.7 | 3.5 | 0.00 | 0.00 | 0.00 | ||
| 20260903005730 | 64 | 180 | 1.7 | 3.5 | 0.00 | 0.00 | 0.00 | ||
| 20260903005329 | 65 | 180 | 0.9 | 1.7 | 0.00 | 0.00 | 0.00 | ||
| 20260903004927 | 64 | 157 | 0.9 | 1.7 | 0.00 | 0.00 | 0.00 | ||
| 20260903004525 | 63 | 157 | 0.9 | 3.5 | 0.00 | 0.00 | 0.00 | ||
| 20260903004124 | 65 | 158 | 2.6 | 3.5 | 0.00 | 0.00 | 0.00 | ||
| 20260903003723 | 66 | 209 | 1.7 | 2.6 | 0.00 | 0.00 | 0.00 | ||
| 20260903003320 | 64 | 225 | 0.9 | 2.6 | 0.00 | 0.00 | 0.00 | ||
| 20260903002919 | 65 | 248 | 0.9 | 2.6 | 0.00 | 0.00 | 0.00 | ||
| 20260903002518 | 63 | 262 | 2.6 | 3.5 | 0.00 | 0.00 | 0.00 | ||
| 20260903002110 | 63 | 288 | 0.9 | 2.6 | 0.00 | 0.00 | 0.00 | ||
| 20260903001708 | 60 | 292 | 0.9 | 1.7 | 0.00 | 0.00 | 0.00 | ||
| 20260903001305 | 60 | 292 | 0.9 | 1.7 | 0.00 | 0.00 | 0.00 | ||
| 20260903000904 | 61 | 288 | 2.6 | 4.3 | 0.00 | 0.00 | 0.00 | ||
| 20260903000502 | 61 | 180 | 0.9 | 2.6 | 0.00 | 0.00 | 0.00 | ||
| 20260902235658 | 62 | 180 | 0.9 | 1.7 | 0.00 | 0.00 | 0.00 | ||
| 20260902235257 | 62 | 180 | 0.9 | 3.5 | 0.00 | 0.00 | 0.00 | ||
| 20260902234856 | 64 | 157 | 1.7 | 3.5 | 0.00 | 0.00 | 0.00 | ||
| 20260902234454 | 65 | 157 | 2.6 | 4.3 | 0.00 | 0.00 | 0.00 | ||
| 20260902234045 | 65 | 152 | 2.6 | 5.2 | 0.00 | 0.00 | 0.00 | ||
| 20260902233643 | 65 | 138 | 2.6 | 3.5 | 0.00 | 0.00 | 0.00 | ||
| 20260902233242 | 65 | 146 | 2.6 | 4.3 | 0.00 | 0.00 | 0.00 | ||
| 20260902232841 | 65 | 153 | 3.5 | 6.1 | 0.00 | 0.00 | 0.00 | ||
| 20260902232438 | 66 | 150 | 4.3 | 7.0 | 0.00 | 0.00 | 0.00 | ||
| 20260902232038 | 65 | 148 | 3.5 | 7.0 | 0.00 | 0.00 | 0.00 | ||
| 20260902231635 | 65 | 133 | 3.5 | 6.1 | 0.00 | 0.00 | 0.00 | ||
| 20260902231234 | 65 | 150 | 4.3 | 7.0 | 0.00 | 0.00 | 0.00 | ||
| 20260902230833 | 65 | 148 | 3.5 | 5.2 | 0.00 | 0.00 | 0.00 | ||
| 20260902230022 | 65 | 151 | 3.5 | 6.1 | 0.00 | 0.00 | 0.00 | ||
| 20260902225620 | 64 | 157 | 2.6 | 3.5 | 0.00 | 0.00 | 0.00 | ||
| 20260902225219 | 64 | 157 | 2.6 | 3.5 | 0.00 | 0.00 | 0.00 | ||
| 20260902224816 | 64 | 154 | 3.5 | 4.3 | 0.00 | 0.00 | 0.00 | ||
| 20260902224415 | 65 | 157 | 2.6 | 4.3 | 0.00 | 0.00 | 0.00 | ||
| 20260902224013 | 65 | 148 | 2.6 | 3.5 | 0.00 | 0.00 | 0.00 | ||
| 20260902223612 | 65 | 152 | 3.5 | 6.1 | 0.00 | 0.00 | 0.00 | ||
| 20260902223209 | 66 | 152 | 4.3 | 7.0 | 0.00 | 0.00 | 0.00 | ||
| 20260902222809 | 64 | 147 | 3.5 | 5.2 | 0.00 | 0.00 | 0.00 | ||
| 20260902222406 | 64 | 142 | 3.5 | 5.2 | 0.00 | 0.00 | 0.00 | ||
| 20260902221958 | 65 | 154 | 2.6 | 4.3 | 0.00 | 0.00 | 0.00 | ||
| 20260902221555 | 65 | 143 | 4.3 | 6.1 | 0.00 | 0.00 | 0.00 | ||
| 20260902221154 | 66 | 148 | 4.3 | 8.7 | 0.00 | 0.00 | 0.00 | ||
| 20260902220753 | 64 | 154 | 3.5 | 5.2 | 0.00 | 0.00 | 0.00 | ||
| 20260902220352 | 62 | 157 | 1.7 | 3.5 | 0.00 | 0.00 | 0.00 | ||
| 20260902215951 | 64 | 157 | 2.6 | 4.3 | 0.00 | 0.00 | 0.00 | ||
| 20260902215548 | 64 | 141 | 2.6 | 4.3 | 0.00 | 0.00 | 0.00 | ||
| 20260902215147 | 65 | 137 | 3.5 | 4.3 | 0.00 | 0.00 | 0.00 | ||
| 20260902214746 | 66 | 151 | 3.5 | 6.1 | 0.00 | 0.00 | 0.00 | ||
| 20260902214344 | 66 | 152 | 4.3 | 7.0 | 0.00 | 0.00 | 0.00 | ||
| 20260902213935 | 66 | 156 | 3.5 | 5.2 | 0.00 | 0.00 | 0.00 | ||
| 20260902213533 | 66 | 163 | 5.2 | 7.0 | 0.00 | 0.00 | 0.00 | ||
| 20260902213132 | 65 | 157 | 2.6 | 3.5 | 0.00 | 0.00 | 0.00 | ||
| 20260902212731 | 66 | 166 | 2.6 | 4.3 | 0.00 | 0.00 | 0.00 | ||
| 20260902212328 | 66 | 178 | 2.6 | 4.3 | 0.00 | 0.00 | 0.00 | ||
| 20260902211927 | 65 | 180 | 2.6 | 5.2 | 0.00 | 0.00 | 0.00 | ||
| 20260902211525 | 66 | 157 | 2.6 | 4.3 | 0.00 | 0.00 | 0.00 | ||
| 20260902211124 | 66 | 157 | 3.5 | 6.1 | 0.00 | 0.00 | 0.00 | ||
| 20260902210722 | 66 | 157 | 2.6 | 3.5 | 0.00 | 0.00 | 0.00 | ||
| 20260902210320 | 66 | 157 | 2.6 | 3.5 | 0.00 | 0.00 | 0.00 | ||
| 20260902205912 | 66 | 157 | 2.6 | 3.5 | 0.00 | 0.00 | 0.00 | ||
| 20260902205510 | 66 | 157 | 1.7 | 4.3 | 0.00 | 0.00 | 0.00 | ||
| 20260902205109 | 67 | 157 | 3.5 | 6.1 | 0.00 | 0.00 | 0.00 | ||
| 20260902204707 | 66 | 156 | 2.6 | 5.2 | 0.00 | 0.00 | 0.00 | ||
| 20260902204305 | 66 | 135 | 0.9 | 1.7 | 0.00 | 0.00 | 0.00 | ||
| 20260902203904 | 66 | 135 | 1.7 | 3.5 | 0.00 | 0.00 | 0.00 | ||
| 20260902203503 | 66 | 146 | 1.7 | 3.5 | 0.00 | 0.00 | 0.00 | ||
| 20260902203101 | 67 | 140 | 1.7 | 3.5 | 0.00 | 0.00 | 0.00 | ||
| 20260902202700 | 67 | 150 | 1.7 | 3.5 | 0.00 | 0.00 | 0.00 | ||
| 20260902202258 | 66 | 157 | 1.7 | 3.5 | 0.00 | 0.00 | 0.00 | ||
| 20260902201850 | 66 | 157 | 0.9 | 2.6 | 0.00 | 0.00 | 0.00 | ||
| 20260902201046 | 67 | 135 | 1.7 | 4.3 | 0.00 | 0.00 | 0.00 | ||
| 20260902200243 | 67 | 135 | 1.7 | 3.5 | 0.00 | 0.00 | 0.00 | ||
| 20260902195841 | 68 | 157 | 3.5 | 5.2 | 0.00 | 0.00 | 0.00 | ||
| 20260902195439 | 68 | 144 | 4.3 | 7.0 | 0.00 | 0.00 | 0.00 | ||
| 20260902195038 | 68 | 136 | 1.7 | 4.3 | 0.00 | 0.00 | 0.00 | ||
| 20260902194637 | 67 | 129 | 1.7 | 1.7 | 0.00 | 0.00 | 0.00 | ||
| 20260902194235 | 67 | 69 | 1.7 | 1.7 | 0.00 | 0.00 | 0.00 | ||
| 20260902193826 | 67 | 21 | 1.7 | 2.6 | 0.00 | 0.00 | 0.00 | ||
| 20260902193424 | 67 | 21 | 0.9 | 1.7 | 0.00 | 0.00 | 0.00 | ||
| 20260902193023 | 67 | 21 | 0.0 | 1.7 | 0.00 | 0.00 | 0.00 | ||
| 20260902192622 | 67 | 21 | 0.0 | 0.0 | 0.00 | 0.00 | 0.00 | ||
| 20260902192219 | 67 | 21 | 0.0 | 0.0 | 0.00 | 0.00 | 0.00 | ||
| 20260902191818 | 68 | 21 | 0.0 | 0.0 | 0.00 | 0.00 | 0.00 | ||
| 20260902191417 | 67 | 21 | 0.0 | 0.0 | 0.00 | 0.00 | 0.00 | ||
| 20260902191016 | 68 | 21 | 0.0 | 1.7 | 0.00 | 0.00 | 0.00 | ||
| 20260902190613 | 68 | 21 | 0.9 | 1.7 | 0.00 | 0.00 | 0.00 | ||
| 20260902190212 | 68 | 21 | 0.0 | 1.7 | 0.00 | 0.00 | 0.00 | ||
| 20260902185804 | 68 | 21 | 0.9 | 0.9 | 0.00 | 0.00 | 0.00 | ||
| 20260902185402 | 68 | 21 | 0.9 | 1.7 | 0.00 | 0.00 | 0.00 | ||
| 20260902185000 | 67 | 21 | 0.0 | 1.7 | 0.00 | 0.00 | 0.00 | ||
| 20260902184559 | 69 | 21 | 1.7 | 2.6 | 0.00 | 0.00 | 0.00 | ||
| 20260902184157 | 69 | 21 | 0.0 | 1.7 | 0.00 | 0.00 | 0.00 | ||
| 20260902183756 | 69 | 21 | 0.0 | 0.9 | 0.00 | 0.00 | 0.00 | ||
| 20260902183354 | 69 | 21 | 0.0 | 0.0 | 0.00 | 0.00 | 0.00 | ||
| 20260902182952 | 69 | 21 | 0.9 | 1.7 | 0.00 | 0.00 | 0.00 |